Regional Weather Roundup
Issued by NWS

Home | Current Version | Previous Version | Graphics & Text | Print | Product List | Glossary On
Versions: 1 2 3 4 5 6 7 8 9 10 11 12 13 14 15 16 17 18 19 20 21 22 23 24 25 26 27 28 29 30 31 32 33 34 35 36 37 38 39 40 41 42 43 44 45 46 47 48 49 50
737
ASUS43 KBIS 271710
RWRND

NORTH DAKOTA REGIONAL WEATHER ROUNDUP
NATIONAL WEATHER SERVICE BISMARCK ND
1200 PM CDT FRI MAY 27 2016

NOTE: "FAIR" INDICATES FEW OR NO CLOUDS BELOW 12,000 FEET WITH NO
SIGNIFICANT WEATHER AND/OR OBSTRUCTIONS TO VISIBILITY.


NDZ001>003-009>011-017-271800-
NORTHWEST NORTH DAKOTA

CITY           SKY/WX    TMP DP  RH WIND       PRES   REMARKS
WILLISTON      PTSUNNY   64  50  60 N9        29.85F
MINOT          CLOUDY    64  54  69 N7        29.82S
MINOT AFB      PTSUNNY   61  54  77 N10       29.82R
$$

NDZ018>021-031>035-040>046-271800-
SOUTHWEST NORTH DAKOTA

CITY           SKY/WX    TMP DP  RH WIND       PRES   REMARKS
BISMARCK       MOSUNNY   68  51  54 N10       29.83S
DICKINSON      MOSUNNY   64  47  53 VRB6      29.83S
GARRISON         N/A     62  49  62 NW8       29.83S
HETTINGER ARPT PTSUNNY   67  46  47 N9        29.85R
$$

NDZ004>008-012>016-024-026-027-054-271800-
NORTHEAST NORTH DAKOTA

CITY           SKY/WX    TMP DP  RH WIND       PRES   REMARKS
GRAND FORKS    PTSUNNY   68  53  58 CALM      29.80F
GRND FRKS AFB  MOSUNNY   67  53  61 VRB3      29.81F
DEVILS LAKE    PTSUNNY   64  54  69 SW8       29.83R
$$

NDZ022-023-025-028>030-036>039-047>053-271800-
SOUTHEAST NORTH DAKOTA

CITY           SKY/WX    TMP DP  RH WIND       PRES   REMARKS
FARGO          CLOUDY    73  58  59 N12       29.76F
JAMESTOWN      CLOUDY    66  52  60 NE3       29.82S
$$





USA.gov is the U.S. government's official web portal to all federal, state and local government web resources and services.